Location: Cheyres
(46.8153°N, 6.7877°E)
Time: 12:51:55
(UTC+00:00)

USA 308 - Pass Details

Date: 11 May 2021
Orbit: 568 x 576 km, 54.0° (Epoch: 10 May)

Event Time Altitude Azimuth Distance (km) Brightness Sun altitude
Rises 19:41:13 0° 298° (WNW) 2,783 8.7 -7.3°
Reaches altitude 10° 19:43:36 10° 306° (NW) 1,885 7.3 -7.7°
Maximum altitude 19:47:38 39° 16° (NNE) 870 4.0 -8.2°
Drops below altitude 10° 19:51:41 10° 86° (E) 1,884 5.1 -8.8°
Enters shadow 19:52:38 - 90° (E) 2,241 5.5 -8.9°
